When you browse on this site, cookies collect data to enhance your experience and personalize the content and advertising you see.
Visit our Privacy Policy to learn more. By continuing to use the site, you agree to this use of cookies and data.
  • In Hungary
  • List of Countries
  • For 7 days
  • Water Temperature
  • Weather Map
  • News
  • Weather Widgets
  • user-avatar
    Login

    Hourly Weather Anloo

    Today, 21 August, Wednesday

    Time Temperature Precipitation Wind Pressure Humidity
    00:00 +12°C° 0 mm 2 mps 768 mmHg 92%
    01:00 +12°C° 0 mm 2 mps 768 mmHg 92%
    02:00 +12°C° 0 mm 2 mps 768 mmHg 93%
    03:00 +11°C° 0 mm 3 mps 768 mmHg 93%
    04:00 +12°C° 0 mm 2 mps 768 mmHg 91%
    05:00 +13°C° 0 mm 2 mps 768 mmHg 90%
    06:00 +13°C° 0 mm 2 mps 769 mmHg 88%
    07:00 +15°C° 0 mm 2 mps 769 mmHg 80%
    08:00 +17°C° 0 mm 3 mps 769 mmHg 71%
    09:00 +19°C° 0 mm 3 mps 769 mmHg 63%
    10:00 +20°C° 0 mm 3 mps 769 mmHg 59%
    11:00 +20°C° 0 mm 3 mps 769 mmHg 54%
    12:00 +21°C° 0 mm 3 mps 769 mmHg 50%
    13:00 +21°C° 0 mm 2 mps 769 mmHg 51%
    14:00 +21°C° 0 mm 2 mps 769 mmHg 52%
    15:00 +21°C° 0 mm 2 mps 769 mmHg 54%
    16:00 +21°C° 0 mm 1 mps 769 mmHg 58%
    17:00 +20°C° 0 mm 1 mps 768 mmHg 63%
    18:00 +19°C° 0 mm 1 mps 768 mmHg 68%
    19:00 +18°C° 0 mm 1 mps 768 mmHg 70%
    20:00 +16°C° 0 mm 1 mps 768 mmHg 71%
    21:00 +15°C° 0 mm 2 mps 768 mmHg 73%
    22:00 +14°C° 0 mm 2 mps 768 mmHg 74%
    23:00 +14°C° 0 mm 2 mps 768 mmHg 75%

    Tomorrow, 22 August, Thursday

    Time Temperature Precipitation Wind Pressure Humidity
    00:00 +12°C° 0 mm 3 mps 768 mmHg 76%
    01:00 +12°C° 0 mm 3 mps 767 mmHg 76%
    02:00 +12°C° 0 mm 3 mps 767 mmHg 77%
    03:00 +13°C° 0 mm 2 mps 767 mmHg 77%
    04:00 +12°C° 0 mm 3 mps 767 mmHg 77%
    05:00 +13°C° 0 mm 3 mps 767 mmHg 76%
    06:00 +13°C° 0 mm 3 mps 767 mmHg 75%
    07:00 +16°C° 0 mm 3 mps 767 mmHg 71%
    08:00 +18°C° 0 mm 3 mps 767 mmHg 66%
    09:00 +20°C° 0 mm 4 mps 767 mmHg 62%
    10:00 +21°C° 0 mm 4 mps 767 mmHg 59%
    11:00 +22°C° 0 mm 4 mps 767 mmHg 57%
    12:00 +23°C° 0 mm 4 mps 767 mmHg 54%
    13:00 +23°C° 0 mm 4 mps 767 mmHg 54%
    14:00 +23°C° 0 mm 4 mps 767 mmHg 53%
    15:00 +23°C° 0 mm 4 mps 767 mmHg 53%
    16:00 +21°C° 0 mm 3 mps 767 mmHg 59%
    17:00 +20°C° 0 mm 2 mps 767 mmHg 64%
    18:00 +18°C° 0 mm 2 mps 767 mmHg 70%
    19:00 +18°C° 0 mm 1 mps 767 mmHg 73%
    20:00 +15°C° 0 mm 1 mps 767 mmHg 76%
    21:00 +13°C° 0 mm 0 mps 768 mmHg 80%
    22:00 +14°C° 0 mm 1 mps 767 mmHg 79%
    23:00 +14°C° 0 mm 1 mps 767 mmHg 79%

    Day after tomorrow, 23 August, Friday

    Time Temperature Precipitation Wind Pressure Humidity
    00:00 +13°C° 0 mm 1 mps 767 mmHg 78%
    01:00 +13°C° 0 mm 1 mps 767 mmHg 78%
    02:00 +13°C° 0 mm 1 mps 767 mmHg 77%
    03:00 +13°C° 0 mm 1 mps 767 mmHg 77%
    04:00 +13°C° 0 mm 1 mps 767 mmHg 77%
    05:00 +14°C° 0 mm 1 mps 767 mmHg 76%
    06:00 +14°C° 0 mm 1 mps 767 mmHg 76%
    07:00 +16°C° 0 mm 2 mps 767 mmHg 69%
    08:00 +18°C° 0 mm 2 mps 767 mmHg 62%
    09:00 +20°C° 0 mm 2 mps 767 mmHg 55%
    10:00 +21°C° 0 mm 2 mps 767 mmHg 52%
    11:00 +23°C° 0 mm 2 mps 767 mmHg 49%
    12:00 +24°C° 0 mm 2 mps 767 mmHg 46%
    13:00 +25°C° 0 mm 1 mps 767 mmHg 46%
    14:00 +25°C° 0 mm 1 mps 767 mmHg 46%
    15:00 +25°C° 0 mm 1 mps 766 mmHg 46%
    16:00 +23°C° 0 mm 1 mps 766 mmHg 54%
    17:00 +21°C° 0 mm 2 mps 766 mmHg 62%
    18:00 +19°C° 0 mm 2 mps 766 mmHg 70%
    19:00 +18°C° 0 mm 2 mps 766 mmHg 72%
    20:00 +17°C° 0 mm 2 mps 766 mmHg 74%
    21:00 +15°C° 0 mm 2 mps 766 mmHg 77%
    22:00 +15°C° 0 mm 2 mps 766 mmHg 77%
    23:00 +15°C° 0 mm 2 mps 766 mmHg 78%

    24 August, Saturday

    Time Temperature Precipitation Wind Pressure Humidity
    00:00 +14°C° 0 mm 2 mps 766 mmHg 79%
    01:00 +14°C° 0 mm 2 mps 766 mmHg 80%
    02:00 +14°C° 0 mm 2 mps 765 mmHg 80%
    03:00 +14°C° 0 mm 2 mps 765 mmHg 80%
    04:00 +14°C° 0 mm 2 mps 765 mmHg 79%
    05:00 +15°C° 0 mm 2 mps 765 mmHg 79%
    06:00 +16°C° 0 mm 2 mps 765 mmHg 78%
    07:00 +18°C° 0 mm 2 mps 765 mmHg 73%
    08:00 +20°C° 0 mm 3 mps 765 mmHg 69%
    09:00 +22°C° 0 mm 3 mps 765 mmHg 64%
    10:00 +24°C° 0 mm 3 mps 765 mmHg 61%
    11:00 +26°C° 0 mm 3 mps 765 mmHg 58%
    12:00 +27°C° 0 mm 3 mps 764 mmHg 54%
    13:00 +27°C° 0 mm 3 mps 764 mmHg 54%
    14:00 +27°C° 0 mm 3 mps 764 mmHg 54%
    15:00 +27°C° 0 mm 3 mps 763 mmHg 54%
    16:00 +26°C° 0 mm 3 mps 763 mmHg 61%
    17:00 +24°C° 0 mm 3 mps 763 mmHg 68%
    18:00 +22°C° 0 mm 3 mps 763 mmHg 75%
    19:00 +21°C° 0 mm 3 mps 763 mmHg 78%
    20:00 +19°C° 0 mm 3 mps 763 mmHg 81%
    21:00 +18°C° 0 mm 4 mps 763 mmHg 84%
    22:00 +18°C° 0 mm 3 mps 763 mmHg 85%
    23:00 +17°C° 0 mm 3 mps 763 mmHg 85%

    25 August, Sunday

    Time Temperature Precipitation Wind Pressure Humidity
    00:00 +17°C° 0 mm 3 mps 763 mmHg 85%
    01:00 +17°C° 0 mm 3 mps 762 mmHg 86%
    02:00 +17°C° 0 mm 3 mps 762 mmHg 87%
    03:00 +16°C° 0 mm 3 mps 762 mmHg 87%
    04:00 +17°C° 0 mm 3 mps 762 mmHg 86%
    05:00 +17°C° 0 mm 3 mps 762 mmHg 85%
    06:00 +18°C° 0 mm 3 mps 762 mmHg 84%
    07:00 +20°C° 0 mm 3 mps 762 mmHg 78%
    08:00 +22°C° 0 mm 3 mps 762 mmHg 73%
    09:00 +25°C° 0 mm 3 mps 762 mmHg 67%
    10:00 +26°C° 0 mm 3 mps 762 mmHg 62%
    11:00 +27°C° 0 mm 3 mps 761 mmHg 58%
    12:00 +29°C° 0 mm 3 mps 761 mmHg 54%
    13:00 +29°C° 0 mm 3 mps 761 mmHg 53%
    14:00 +29°C° 0 mm 3 mps 761 mmHg 52%
    15:00 +29°C° 0 mm 2 mps 761 mmHg 52%
    16:00 +27°C° 0 mm 2 mps 760 mmHg 59%
    17:00 +26°C° 0 mm 2 mps 760 mmHg 66%
    18:00 +25°C° 0 mm 3 mps 760 mmHg 73%
    19:00 +22°C° 0 mm 3 mps 760 mmHg 75%
    20:00 +21°C° 0 mm 3 mps 760 mmHg 77%
    21:00 +20°C° 0 mm 3 mps 760 mmHg 79%
    22:00 +20°C° 0 mm 3 mps 760 mmHg 78%
    23:00 +20°C° 0 mm 2 mps 759 mmHg 78%

    26 August, Monday

    Time Temperature Precipitation Wind Pressure Humidity
    00:00 +19°C° 0 mm 2 mps 759 mmHg 77%
    01:00 +19°C° 0 mm 2 mps 759 mmHg 78%
    02:00 +19°C° 0 mm 2 mps 759 mmHg 79%
    03:00 +19°C° 0 mm 2 mps 758 mmHg 80%
    04:00 +19°C° 0 mm 2 mps 758 mmHg 79%
    05:00 +20°C° 0 mm 2 mps 758 mmHg 79%
    06:00 +20°C° 0 mm 2 mps 758 mmHg 78%
    07:00 +22°C° 0 mm 3 mps 758 mmHg 73%
    08:00 +25°C° 0 mm 3 mps 758 mmHg 69%
    09:00 +26°C° 0 mm 3 mps 758 mmHg 64%
    10:00 +27°C° 0 mm 4 mps 758 mmHg 62%
    11:00 +27°C° 0 mm 4 mps 758 mmHg 61%
    12:00 +27°C° 0 mm 5 mps 758 mmHg 60%
    13:00 +25°C° 0.1 mm 5 mps 759 mmHg 65%
    14:00 +22°C° 0.1 mm 5 mps 759 mmHg 71%
    15:00 +21°C° 0.1 mm 5 mps 759 mmHg 76%
    16:00 +20°C° 0 mm 4 mps 759 mmHg 76%
    17:00 +19°C° 0 mm 4 mps 760 mmHg 77%
    18:00 +19°C° 0 mm 4 mps 760 mmHg 77%
    19:00 +18°C° 0 mm 4 mps 760 mmHg 79%
    20:00 +17°C° 0 mm 3 mps 761 mmHg 81%
    21:00 +16°C° 0 mm 3 mps 761 mmHg 84%
    22:00 +16°C° 0 mm 3 mps 762 mmHg 85%
    23:00 +14°C° 0 mm 3 mps 762 mmHg 87%
    Show more